Bentonville, AR

10:50 PM CST on February 13, 2016 (GMT -0600)
Bentonville Municipal-Thaden

Weather History for KVBT - January, 2013

Change the Weather History Date:

Saturday, January 26, 2013

  Actual Average (KFYV) Record (KFYV)
Temperature  
Mean Temperature 48 °F 36 °F  
Max Temperature 60 °F 47 °F 74 °F (1952)
Min Temperature 35 °F 25 °F 7 °F (1985)
Degree Days  
Heating Degree Days 18 29  
Month to date heating degree days 772  
Since 1 July heating degree days 2455  
Moisture  
Dew Point 23 °F    
Average Humidity 43    
Maximum Humidity 70    
Minimum Humidity 20    
Precipitation  
Precipitation 0.00 in 0.09 in 0.66 in (1949)
Month to date precipitation 2.40  
Year to date precipitation 2.40  
Sea Level Pressure  
Sea Level Pressure 30.20 in    
Wind  
Wind Speed 6 mph (ESE)    
Max Wind Speed 14 mph    
Max Gust Speed 17 mph    
Visibility 10 miles    
Events      
T = Trace of Precipitation, MM = Missing Value Source: NWS Daily Summary

Daily Weather History Graph

Daily Weather History Graph

Search for Another Location

Airport or City:

Trip Planner

Search our weather history database for the weather conditions in past years. The results will help you decide how hot, cold, wet, or windy it might be!

Date:

Astronomy

Jan. 26, 2013 Rise Set
Actual Time 7:22 AM CST 5:37 PM CST
Civil Twilight 6:54 AM CST 6:04 PM CST
Nautical Twilight 6:23 AM CST 6:35 PM CST
Astronomical Twilight 5:53 AM CST 7:06 PM CST
Moon 5:31 PM CST (1/26) 6:41 AM CST (1/26)
Length of Visible Light 11h 09m
Length of Day
10h 14m
Full, 100% of the Moon is Illuminated
Jan 26
Full
Jan 26
Full
Feb 3
Last Quarter
Feb 10
New
Feb 17
First Quarter

Hourly Weather History & Observations

Time (CST) Temp. Windchill Dew Point Humidity Pressure Visibility Wind Dir Wind Speed Gust Speed Precip Events Conditions
12:15 AM 35.6 °F - 26.6 °F 70% 30.24 in 10.0 mi Calm Calm - N/A   Clear
12:55 AM 37.4 °F 33.8 °F 26.6 °F 65% 30.24 in 10.0 mi NE 4.6 mph - N/A   Clear
1:36 AM 37.4 °F 33.8 °F 26.6 °F 65% 30.23 in 10.0 mi East 4.6 mph - N/A   Clear
1:55 AM 37.4 °F 33.8 °F 26.6 °F 65% 30.24 in 10.0 mi East 4.6 mph - N/A   Clear
2:15 AM 37.4 °F 33.8 °F 28.4 °F 70% 30.24 in 10.0 mi ENE 4.6 mph - N/A   Clear
3:15 AM 37.4 °F 32.8 °F 26.6 °F 65% 30.22 in 10.0 mi ENE 5.8 mph - N/A   Clear
3:35 AM 37.4 °F 32.8 °F 26.6 °F 65% 30.22 in 10.0 mi East 5.8 mph - N/A   Clear
4:15 AM 37.4 °F 32.8 °F 26.6 °F 65% 30.21 in 10.0 mi East 5.8 mph - N/A   Clear
4:35 AM 37.4 °F 33.8 °F 26.6 °F 65% 30.21 in 10.0 mi East 4.6 mph - N/A   Clear
4:55 AM 37.4 °F 33.8 °F 24.8 °F 60% 30.21 in 10.0 mi ESE 4.6 mph - N/A   Clear
5:15 AM 37.4 °F 33.8 °F 24.8 °F 60% 30.21 in 10.0 mi East 4.6 mph - N/A   Clear
5:35 AM 37.4 °F 32.8 °F 24.8 °F 60% 30.21 in 10.0 mi ESE 5.8 mph - N/A   Clear
5:55 AM 37.4 °F 32.8 °F 26.6 °F 65% 30.21 in 10.0 mi East 5.8 mph - N/A   Clear
6:16 AM 37.4 °F 31.4 °F 26.6 °F 65% 30.21 in 10.0 mi East 8.1 mph - N/A   Clear
6:35 AM 37.4 °F 31.4 °F 26.6 °F 65% 30.22 in 10.0 mi East 8.1 mph - N/A   Clear
6:55 AM 37.4 °F 30.3 °F 24.8 °F 60% 30.22 in 10.0 mi East 10.4 mph - N/A   Clear
7:15 AM 37.4 °F 30.8 °F 24.8 °F 60% 30.22 in 10.0 mi East 9.2 mph - N/A   Clear
7:16 AM 37.4 °F 31.4 °F 24.8 °F 60% 30.23 in 10.0 mi East 8.1 mph - N/A   Clear
7:35 AM 37.4 °F 31.4 °F 24.8 °F 60% 30.23 in 10.0 mi East 8.1 mph - N/A   Clear
8:15 AM 39.2 °F 34.2 °F 24.8 °F 56% 30.24 in 10.0 mi East 6.9 mph - N/A   Clear
8:56 AM 41.0 °F 36.4 °F 24.8 °F 53% 30.24 in 10.0 mi East 6.9 mph - N/A   Clear
9:15 AM 42.8 °F 38.6 °F 24.8 °F 49% 30.24 in 10.0 mi East 6.9 mph - N/A   Clear
9:35 AM 44.6 °F 39.2 °F 24.8 °F 46% 30.24 in 10.0 mi East 10.4 mph - N/A   Clear
9:55 AM 46.4 °F 41.5 °F 21.2 °F 37% 30.24 in 10.0 mi ESE 10.4 mph 17.3 mph N/A   Clear
10:15 AM 48.2 °F - 21.2 °F 34% 30.24 in 10.0 mi ESE 12.7 mph - N/A   Clear
10:35 AM 48.2 °F - 21.2 °F 34% 30.25 in 10.0 mi ESE 10.4 mph - N/A   Clear
11:15 AM 51.8 °F - 23.0 °F 33% 30.25 in 10.0 mi SE 10.4 mph - N/A   Clear
11:35 AM 53.6 °F - 24.8 °F 33% 30.24 in 10.0 mi ESE 10.4 mph - N/A   Clear
11:55 AM 53.6 °F - 24.8 °F 33% 30.24 in 10.0 mi SE 8.1 mph - N/A   Clear
12:15 PM 55.4 °F - 23.0 °F 29% 30.22 in 10.0 mi SE 8.1 mph - N/A   Clear
12:35 PM 55.4 °F - 23.0 °F 29% 30.21 in 10.0 mi East 6.9 mph - N/A   Clear
12:55 PM 55.4 °F - 24.8 °F 31% 30.20 in 10.0 mi ESE 5.8 mph - N/A   Clear
1:36 PM 59.0 °F - 23.0 °F 25% 30.16 in 10.0 mi ESE 8.1 mph - N/A   Clear
1:55 PM 59.0 °F - 21.2 °F 23% 30.16 in 10.0 mi SE 8.1 mph - N/A   Clear
2:15 PM 60.8 °F - 21.2 °F 22% 30.15 in 10.0 mi SSE 13.8 mph 17.3 mph N/A   Mostly Cloudy
2:35 PM 60.8 °F - 19.4 °F 20% 30.15 in 10.0 mi South 11.5 mph 17.3 mph N/A   Mostly Cloudy
2:55 PM 60.8 °F - 19.4 °F 20% 30.15 in 10.0 mi SSE 11.5 mph - N/A   Mostly Cloudy
3:15 PM 59.0 °F - 19.4 °F 22% 30.15 in 10.0 mi South 10.4 mph - N/A   Mostly Cloudy
3:35 PM 57.2 °F - 19.4 °F 23% 30.15 in 10.0 mi South 9.2 mph - N/A   Mostly Cloudy
4:15 PM 55.4 °F - 19.4 °F 25% 30.15 in 10.0 mi SSE 10.4 mph - N/A   Overcast
4:35 PM 53.6 °F - 19.4 °F 26% 30.15 in 10.0 mi SSE 9.2 mph - N/A   Overcast
4:55 PM 53.6 °F - 19.4 °F 26% 30.14 in 10.0 mi SSE 10.4 mph - N/A   Overcast
5:15 PM 53.6 °F - 19.4 °F 26% 30.14 in 10.0 mi SE 9.2 mph - N/A   Overcast
5:35 PM 53.6 °F - 19.4 °F 26% 30.15 in 10.0 mi SSE 8.1 mph - N/A   Overcast
5:55 PM 51.8 °F - 19.4 °F 28% 30.15 in 10.0 mi SSE 9.2 mph - N/A   Overcast
6:55 PM 51.8 °F - 19.4 °F 28% 30.16 in 10.0 mi South 5.8 mph - N/A   Overcast
7:15 PM 51.8 °F - 19.4 °F 28% 30.16 in 10.0 mi SSE 8.1 mph - N/A   Overcast
7:35 PM 51.8 °F - 19.4 °F 28% 30.16 in 10.0 mi SSE 9.2 mph - N/A   Overcast
7:55 PM 50.0 °F - 19.4 °F 30% 30.15 in 10.0 mi SSE 10.4 mph - N/A   Overcast
8:15 PM 50.0 °F - 19.4 °F 30% 30.16 in 10.0 mi SSE 9.2 mph - N/A   Overcast